Location: Deuil
(48.9767°N, 2.3272°E)
Time: 00:09:06
(UTC+00:00)

Cosmos 2228 - Pass Details

Date: 29 May 2022
Orbit: 586 x 617 km, 82.5° (Epoch: 03 July)

Event Time Altitude Azimuth Distance (km) Brightness Sun altitude
Rises 00:54:12 0° 1° (N) 2,893 8.0 -17.9°
Reaches altitude 10° 00:56:53 10° 17° (NNE) 1,977 7.0 -17.8°
Maximum altitude 01:00:17 22° 68° (ENE) 1,353 5.2 -17.6°
Drops below altitude 10° 01:03:39 10° 119° (ESE) 1,951 5.5 -17.4°
Enters shadow 01:05:16 - 130° (SE) 2,482 5.9 -17.4°
